BLOCK DM-SL R/B

Satellite information

Favourite Embed

Satellite Type and Status

ROCKET BODYIN ORBIT

Key statistics

Satellite BLOCK DM-SL R/B at a glance.

Uptime

4724

Days in orbit

Revolutions

≈ 2.3

Per day

Orbit

GTO

Geostationary Transfer Orbit

Inclination

0.7

Latest

Satellite identification and parameters

Extended collection of information and parameters for BLOCK DM-SL R/B.

Object identification

Identified? True

Debris? False

Object name: BLOCK DM-SL R/B

International designator: 2012-030B

Object number (NORAD): 38357

Object ID (CCSDS): 38357

Country: SEA LAUNCH DEMO (SEAL)

Current information (Y/N): Y

RCS size: LARGE

Orbital parameters

Period: 639.048 minutes

Inclination: 0.6659 deg

SMA: 24576.253 km

Apoapsis: 35658.962 km

Periapsis: 737.275 km

RAAN: 309.5429 deg

Eccentricy: 0.7104762

Argument of periapsis: 296.6933 deg

Mean anomaly: 27.5706 deg

Mean motion: 2.25335308 rev/day

Mean motion (dot): -0.00000175 rev/day2

B* drag term: 0.00098526 1/REarth

Two-line elements (TLE)

Creation date: May 8, 2025, 3:01 a.m.

Reference frame: TEME

Reference center: EARTH

Epoch: May 7, 2025, 3:14 p.m. UTC

TLE line 0: 0 BLOCK DM-SL R/B

TLE line 1: 1 38357U 12030B 25127.63474260 -.00000175 00000-0 98526-3 0 9998

TLE line 2: 2 38357 0.6659 309.5429 7104762 296.6933 27.5706 2.25335308106499

Live tracking on map

Real-time ground track for satellite BLOCK DM-SL R/B.

In-orbit conjunctions

There are no conjunctions computed for BLOCK DM-SL R/B, at the moment. Check back to stay up to date, as we update our databases every day.

Go to all conjunctions

Associated space launch

BLOCK DM-SL R/B was lifted into orbit during the mission ‘Zenit 3SL | Intelsat 19’, on board a Zenit space rocket.

The launch took place on June 1, 2012, 5:22 a.m. from Launch Platform Odyssey.

For more information about the launch, click the button.

Launch to space Zenit 3SL | Intelsat 19
Zenit 3SL | Intelsat 19

Agency: N/A

Status: Launch Successful

Launch date: June 1, 2012, 5:22 a.m. UTC

Rocket: Zenit

Launch pad: Launch Platform Odyssey

Location: Sea Launch

...

Latest news about this satellite

There are no fresh news available about this satellite. Check back as we update our databases every day.


Newsletter sign-up

Weekly statistics, charts and insights to help you stay on top of the space industry.